| time (UTC) | temp C | wind direction | speed KPH | gust KPH | rain 1hr cm | rain 24hr cm | rain mn cm | humidity % | barometer mb |
| 20260906040054 | 31 | 19 | 1.6 | 4.8 | 0.00 | 0.00 | 0.00 | 64 | 1012.0 |
| 20260906034602 | 31 | 5 | 1.6 | 8.0 | 0.00 | 0.00 | 0.00 | 63 | 1011.8 |
| 20260906033053 | 31 | 42 | 1.6 | 6.4 | 0.00 | 0.00 | 0.00 | 61 | 1011.9 |
| 20260906031553 | 31 | 42 | 1.6 | 6.4 | 0.00 | 0.00 | 0.00 | 60 | 1011.6 |
| 20260906030054 | 32 | 13 | 1.6 | 8.0 | 0.00 | 0.00 | 0.00 | 58 | 1011.5 |
| 20260906024555 | 32 | 91 | 1.6 | 6.4 | 0.00 | 0.00 | 0.00 | 55 | 1011.4 |
| 20260906023052 | 32 | 28 | 1.6 | 4.8 | 0.00 | 0.00 | 0.00 | 54 | 1011.2 |
| 20260906021557 | 32 | 360 | 0.0 | 6.4 | 0.00 | 0.00 | 0.00 | 52 | 1011.0 |
| 20260906020050 | 32 | 67 | 0.0 | 3.2 | 0.00 | 0.00 | 0.00 | 51 | 1010.9 |
| 20260906014552 | 32 | 76 | 0.0 | 3.2 | 0.00 | 0.00 | 0.00 | 50 | 1010.6 |
| 20260906013049 | 32 | 80 | 0.0 | 1.6 | 0.00 | 0.00 | 0.00 | 51 | 1010.5 |
| 20260906011548 | 32 | 81 | 0.0 | 3.2 | 0.00 | 0.00 | 0.00 | 51 | 1010.4 |
| 20260906010113 | 32 | 81 | 0.0 | 0.0 | 0.00 | 0.00 | 0.00 | 51 | 1010.2 |
| 20260906004605 | 33 | 81 | 0.0 | 3.2 | 0.00 | 0.00 | 0.00 | 48 | 1010.1 |
| 20260906003047 | 34 | 63 | 1.6 | 3.2 | 0.00 | 0.00 | 0.00 | 47 | 1010.1 |
| 20260906001559 | 34 | 64 | 0.0 | 3.2 | 0.00 | 0.00 | 0.00 | 45 | 1010.1 |
| 20260906000046 | 34 | 65 | 0.0 | 8.0 | 0.00 | 0.00 | 0.00 | 44 | 1010.0 |
| 20260905234546 | 35 | 58 | 0.0 | 3.2 | 0.00 | 0.00 | 0.00 | 45 | 1010.1 |
| 20260905233045 | 35 | 37 | 0.0 | 3.2 | 0.00 | 0.00 | 0.00 | 46 | 1010.1 |
| 20260905231544 | 35 | 38 | 0.0 | 6.4 | 0.00 | 0.00 | 0.00 | 43 | 1010.2 |
| 20260905230043 | 36 | 130 | 1.6 | 6.4 | 0.00 | 0.00 | 0.00 | 41 | 1010.2 |
| 20260905224544 | 36 | 340 | 3.2 | 8.0 | 0.00 | 0.00 | 0.00 | 38 | 1010.1 |
| 20260905223050 | 36 | 278 | 3.2 | 8.0 | 0.00 | 0.00 | 0.00 | 36 | 1009.9 |
| 20260905221543 | 37 | 324 | 1.6 | 9.7 | 0.00 | 0.00 | 0.00 | 36 | 1010.0 |
| 20260905220041 | 37 | 342 | 3.2 | 12.9 | 0.00 | 0.00 | 0.00 | 34 | 1010.0 |
| 20260905214545 | 37 | 278 | 3.2 | 12.9 | 0.00 | 0.00 | 0.00 | 35 | 1010.0 |
| 20260905213039 | 37 | 273 | 3.2 | 16.1 | 0.00 | 0.00 | 0.00 | 37 | 1010.0 |
| 20260905211538 | 38 | 302 | 1.6 | 12.9 | 0.00 | 0.00 | 0.00 | 35 | 1010.1 |
| 20260905210045 | 38 | 331 | 3.2 | 9.7 | 0.00 | 0.00 | 0.00 | 35 | 1010.3 |
| 20260905204535 | 38 | 271 | 6.4 | 12.9 | 0.00 | 0.00 | 0.00 | 35 | 1010.3 |
| 20260905203037 | 37 | 328 | 6.4 | 16.1 | 0.00 | 0.00 | 0.00 | 37 | 1010.3 |
| 20260905201533 | 38 | 305 | 0.0 | 12.9 | 0.00 | 0.00 | 0.00 | 37 | 1010.5 |
| 20260905200051 | 38 | 327 | 1.6 | 6.4 | 0.00 | 0.00 | 0.00 | 34 | 1010.5 |
| 20260905194530 | 38 | 305 | 3.2 | 6.4 | 0.00 | 0.00 | 0.00 | 35 | 1010.8 |
| 20260905193033 | 38 | 26 | 3.2 | 14.5 | 0.00 | 0.00 | 0.00 | 33 | 1011.0 |
| 20260905191525 | 38 | 299 | 1.6 | 14.5 | 0.00 | 0.00 | 0.00 | 36 | 1011.1 |
| 20260905190026 | 38 | 307 | 3.2 | 8.0 | 0.00 | 0.00 | 0.00 | 36 | 1011.3 |
| 20260905184532 | 38 | 360 | 3.2 | 9.7 | 0.00 | 0.00 | 0.00 | 36 | 1011.4 |
| 20260905183026 | 38 | 342 | 3.2 | 8.0 | 0.00 | 0.00 | 0.00 | 38 | 1011.7 |
| 20260905181518 | 37 | 346 | 3.2 | 12.9 | 0.00 | 0.00 | 0.00 | 39 | 1011.8 |
| 20260905180017 | 38 | 229 | 1.6 | 11.3 | 0.00 | 0.00 | 0.00 | 45 | 1011.9 |
| 20260905174518 | 37 | 294 | 1.6 | 4.8 | 0.00 | 0.00 | 0.00 | 44 | 1011.9 |
| 20260905173016 | 37 | 308 | 1.6 | 6.4 | 0.00 | 0.00 | 0.00 | 46 | 1012.1 |
| 20260905171507 | 37 | 303 | 1.6 | 6.4 | 0.00 | 0.00 | 0.00 | 43 | 1012.2 |
| 20260905164559 | 36 | 313 | 1.6 | 8.0 | 0.00 | 0.00 | 0.00 | 45 | 1012.6 |
| 20260905163056 | 36 | 292 | 3.2 | 9.7 | 0.00 | 0.00 | 0.00 | 46 | 1012.7 |
| 20260905161553 | 35 | 292 | 3.2 | 8.0 | 0.00 | 0.00 | 0.00 | 45 | 1012.9 |
| 20260905160051 | 35 | 340 | 1.6 | 8.0 | 0.00 | 0.00 | 0.00 | 47 | 1012.9 |
| 20260905154547 | 35 | 330 | 3.2 | 8.0 | 0.00 | 0.00 | 0.00 | 48 | 1012.8 |
| 20260905153043 | 35 | 294 | 3.2 | 6.4 | 0.00 | 0.00 | 0.00 | 49 | 1012.9 |
| 20260905151541 | 34 | 265 | 1.6 | 6.4 | 0.00 | 0.00 | 0.00 | 54 | 1012.8 |
| 20260905150035 | 33 | 284 | 0.0 | 6.4 | 0.00 | 0.00 | 0.00 | 53 | 1012.9 |
| 20260905144539 | 33 | 292 | 0.0 | 4.8 | 0.00 | 0.00 | 0.00 | 55 | 1012.8 |
| 20260905143034 | 32 | 278 | 0.0 | 3.2 | 0.00 | 0.00 | 0.00 | 57 | 1012.7 |
| 20260905141524 | 31 | 278 | 0.0 | 4.8 | 0.00 | 0.00 | 0.00 | 60 | 1012.7 |
| 20260905140024 | 31 | 307 | 0.0 | 4.8 | 0.00 | 0.00 | 0.00 | 60 | 1012.8 |
| 20260905134527 | 31 | 311 | 1.6 | 4.8 | 0.00 | 0.00 | 0.00 | 60 | 1012.7 |
| 20260905133015 | 30 | 315 | 0.0 | 4.8 | 0.00 | 0.00 | 0.00 | 62 | 1012.6 |
| 20260905131511 | 30 | 276 | 0.0 | 3.2 | 0.00 | 0.00 | 0.00 | 64 | 1012.5 |
| 20260905130006 | 29 | 273 | 0.0 | 3.2 | 0.00 | 0.00 | 0.00 | 65 | 1012.4 |
| 20260905124505 | 28 | 219 | 0.0 | 3.2 | 0.00 | 0.00 | 0.00 | 67 | 1012.2 |
| 20260905123012 | 28 | 219 | 0.0 | 1.6 | 0.00 | 0.00 | 0.00 | 68 | 1012.3 |
| 20260905121501 | 28 | 219 | 0.0 | 1.6 | 0.00 | 0.00 | 0.00 | 67 | 1012.1 |
| 20260905120058 | 27 | 219 | 0.0 | 0.0 | 0.00 | 0.00 | 0.00 | 67 | 1012.0 |
| 20260905114556 | 28 | 219 | 0.0 | 1.6 | 0.00 | 0.00 | 0.00 | 66 | 1011.7 |
| 20260905113055 | 28 | 219 | 0.0 | 3.2 | 0.00 | 0.00 | 0.00 | 66 | 1011.6 |
| 20260905111558 | 28 | 219 | 0.0 | 0.0 | 0.00 | 0.00 | 0.00 | 65 | 1011.6 |
| 20260905110052 | 28 | 219 | 0.0 | 1.6 | 0.00 | 0.00 | 0.00 | 65 | 1011.5 |
| 20260905104552 | 28 | 134 | 0.0 | 1.6 | 0.00 | 0.00 | 0.00 | 65 | 1011.5 |
| 20260905103058 | 28 | 134 | 0.0 | 3.2 | 0.00 | 0.00 | 0.00 | 64 | 1011.5 |
| 20260905101549 | 28 | 128 | 0.0 | 1.6 | 0.00 | 0.00 | 0.00 | 65 | 1011.5 |
| 20260905100057 | 28 | 128 | 0.0 | 0.0 | 0.00 | 0.00 | 0.00 | 65 | 1011.6 |
| 20260905094549 | 28 | 128 | 0.0 | 0.0 | 0.00 | 0.00 | 0.00 | 65 | 1011.6 |
| 20260905093048 | 28 | 128 | 0.0 | 0.0 | 0.00 | 0.00 | 0.00 | 65 | 1011.5 |
| 20260905091552 | 28 | 128 | 0.0 | 0.0 | 0.00 | 0.00 | 0.00 | 64 | 1011.7 |
| 20260905090045 | 29 | 128 | 0.0 | 1.6 | 0.00 | 0.00 | 0.00 | 64 | 1011.6 |
| 20260905084555 | 29 | 128 | 0.0 | 0.0 | 0.00 | 0.00 | 0.00 | 64 | 1011.7 |
| 20260905083044 | 28 | 128 | 0.0 | 1.6 | 0.00 | 0.00 | 0.00 | 65 | 1011.7 |
| 20260905081542 | 28 | 128 | 0.0 | 0.0 | 0.00 | 0.00 | 0.00 | 65 | 1011.8 |
| 20260905080107 | 29 | 128 | 0.0 | 0.0 | 0.00 | 0.00 | 0.00 | 64 | 1011.9 |
| 20260905074538 | 29 | 128 | 0.0 | 3.2 | 0.00 | 0.00 | 0.00 | 64 | 1011.9 |
| 20260905073036 | 29 | 306 | 0.0 | 0.0 | 0.00 | 0.00 | 0.00 | 63 | 1012.0 |
| 20260905071535 | 30 | 308 | 0.0 | 0.0 | 0.00 | 0.00 | 0.00 | 63 | 1012.1 |
| 20260905070040 | 30 | 308 | 0.0 | 1.6 | 0.00 | 0.00 | 0.00 | 62 | 1012.1 |
| 20260905064537 | 29 | 308 | 0.0 | 0.0 | 0.00 | 0.00 | 0.00 | 62 | 1012.1 |
| 20260905063033 | 30 | 308 | 0.0 | 0.0 | 0.00 | 0.00 | 0.00 | 62 | 1012.1 |
| 20260905061531 | 30 | 308 | 0.0 | 0.0 | 0.00 | 0.00 | 0.00 | 61 | 1012.3 |
| 20260905060043 | 30 | 308 | 0.0 | 0.0 | 0.00 | 0.00 | 0.00 | 60 | 1012.3 |
| 20260905054531 | 30 | 308 | 0.0 | 1.6 | 0.00 | 0.00 | 0.00 | 59 | 1012.3 |
| 20260905053028 | 30 | 308 | 0.0 | 0.0 | 0.00 | 0.00 | 0.00 | 59 | 1012.2 |
| 20260905051527 | 30 | 308 | 0.0 | 0.0 | 0.00 | 0.00 | 0.00 | 59 | 1012.3 |
| 20260905050027 | 30 | 308 | 0.0 | 1.6 | 0.00 | 0.00 | 0.00 | 59 | 1012.2 |
| 20260905044527 | 30 | 308 | 0.0 | 0.0 | 0.00 | 0.00 | 0.00 | 59 | 1012.2 |
| 20260905043022 | 30 | 308 | 0.0 | 0.0 | 0.00 | 0.00 | 0.00 | 59 | 1012.1 |
| 20260905041522 | 30 | 308 | 0.0 | 1.6 | 0.00 | 0.00 | 0.00 | 60 | 1012.1 |